Location: Skalnate Pleso
(49.1889°N, 20.2450°E)
Time: 14:22:37
(UTC+01:00)

COSMO-SKYMED 1 - Visible Passes

Search period start: 18 February 2020 00:00
Search period end: 28 February 2020 00:00
Orbit: 621 x 623 km, 97.9° (Epoch: 18 February)

Date Brightness Start Highest point End Pass type
(mag) Time Alt. Az. Time Alt. Az. Time Alt. Az.
18 Feb 4.7 03:44:11 10° ESE 03:47:44 25° ENE 03:51:18 10° N visible
18 Feb 3.0 05:19:37 10° SSW 05:23:43 40° W 05:27:51 10° NNW visible
18 Feb 4.2 18:38:55 10° N 18:42:55 36° WNW 18:46:53 10° SW visible
19 Feb 4.1 04:01:41 10° SE 04:05:39 36° ENE 04:09:37 10° N visible
19 Feb 3.5 05:38:09 10° SSW 05:41:52 27° W 05:45:36 10° NW visible
19 Feb 4.8 18:57:13 10° N 19:00:50 26° WNW 19:04:25 10° WSW visible
20 Feb 3.3 04:19:24 10° SSE 04:23:36 52° ENE 04:27:51 10° N visible
20 Feb 3.9 05:57:00 10° SW 06:00:04 19° W 06:03:11 10° NW visible
20 Feb 2.6 17:38:38 10° NNE 17:42:57 59° E 17:47:14 10° S visible
20 Feb 5.4 19:15:42 10° NNW 19:18:42 18° WNW 19:21:41 10° WSW visible
21 Feb 5.8 03:04:43 10° ENE 03:06:11 12° NE 03:07:39 10° NE visible
21 Feb 2.6 04:37:16 10° SSE 04:41:36 78° ENE 04:45:59 10° NNW visible
21 Feb 2.6 17:56:38 10° NNE 18:01:02 89° ESE 18:05:22 10° SSW visible
21 Feb 5.7 19:34:28 10° NNW 19:36:32 13° WNW 19:38:35 10° W visible
22 Feb 5.4 03:21:20 10° E 03:24:01 16° ENE 03:26:41 10° NNE visible
22 Feb 2.4 04:55:20 10° S 04:59:40 70° WSW 05:04:01 10° NNW visible
22 Feb 3.2 18:14:44 10° N 18:19:03 61° WNW 18:23:19 10° SSW visible
23 Feb 5.0 03:38:29 10° ESE 03:41:52 23° ENE 03:45:15 10° NNE visible
23 Feb 2.8 05:13:36 10° S 05:17:46 46° W 05:21:59 10° NNW visible
23 Feb 4.0 18:32:56 10° N 18:37:02 41° WNW 18:41:07 10° SW visible
24 Feb 4.4 03:55:56 10° SE 03:59:47 32° ENE 04:03:39 10° N visible
24 Feb 3.3 05:32:04 10° SSW 05:35:55 31° W 05:39:49 10° NNW visible
24 Feb 4.7 18:51:14 10° N 18:54:59 29° WNW 18:58:43 10° SW visible
25 Feb 3.6 04:13:36 10° SE 04:17:44 46° ENE 04:21:55 10° N visible
25 Feb 3.8 05:50:49 10° SW 05:54:08 21° W 05:57:29 10° NW visible
25 Feb 5.2 19:09:40 10° NNW 19:12:53 21° WNW 19:16:06 10° WSW visible
26 Feb 5.9 02:59:49 10° ENE 03:00:24 10° NE 03:01:00 10° NE visible
26 Feb 2.9 04:31:26 10° SSE 04:35:45 69° ENE 04:40:05 10° N visible
26 Feb 2.5 17:50:47 10° NNE 17:55:09 79° ESE 17:59:30 10° S visible
26 Feb 5.6 19:28:20 10° NNW 19:30:45 15° WNW 19:33:10 10° W visible
27 Feb 5.6 03:15:51 10° E 03:18:13 15° ENE 03:20:36 10° NNE visible
27 Feb 2.5 04:49:28 10° S 04:53:48 80° WSW 04:58:11 10° NNW visible
27 Feb 2.9 18:08:52 10° N 18:13:13 70° WNW 18:17:32 10° SSW visible
27 Feb 6.0 19:47:47 10° NW 19:48:34 10° NW 19:49:21 10° WNW visible
